Wetbulb
58.62 58.15 57.73 57.31 56.45 55.59 54.70 54.24 53.58 53.21 52.99 53.02 53.02 53.26 53.83 54.62 54.21 46.92 42.63 48.46 47.87 57.42 57.25 48.40 45.69 44.46 41.97 39.65 40.16 38.31 33.38 30.83 33.18 35.39 36.79 41.27 40.54 43.13 43.38 41.94 42.73 44.53 43.50 45.55 49.04
59.41 58.72 58.22 57.90 56.89 55.86 54.96 54.73 54.08 53.28 52.81 52.73 52.69 53.69 54.34 54.85 49.25 47.10 52.57 57.20 56.64 57.45 46.08 45.74 44.34 44.35 38.99 37.29 38.00 35.67 31.89 34.57 38.53 37.84 39.27 40.57 39.47 40.16 39.26 38.80 40.32 43.19 46.86 47.48 46.64
59.50 59.46 58.96 58.43 57.49 56.26 55.11 54.28 54.02 53.25 52.72 52.45 53.21 53.87 54.22 53.38 44.71 45.47 56.43 57.50 57.84 54.09 46.68 46.34 45.80 42.27 37.69 37.90 36.05 33.86 33.76 36.71 38.22 39.65 38.52 37.38 38.41 41.08 37.10 36.39 40.85 40.98 42.76 44.09 43.53
59.59 59.04 58.75 58.48 57.95 56.76 54.94 53.71 53.65 53.08 52.36 52.21 52.22 53.63 54.76 49.55 36.11 44.46 56.92 58.09 58.44 50.26 46.27 44.53 42.76 38.82 36.33 35.33 37.80 34.02 38.14 38.38 38.20 39.54 38.32 37.61 39.43 39.55 39.19 39.31 43.81 43.68 43.68 43.24 41.73
58.60 58.46 58.55 58.73 58.16 56.99 54.83 53.61 53.38 52.56 52.28 51.91 52.04 53.58 49.83 40.40 42.25 48.28 58.72 54.83 47.84 47.17 44.02 42.97 41.40 39.26 36.50 37.57 38.77 35.46 38.02 40.55 40.74 40.52 38.59 41.21 39.58 40.39 40.43 43.51 44.54 43.39 41.97 40.78 40.89
57.88 57.87 57.83 58.02 58.01 56.56 55.05 53.87 52.96 52.76 52.00 51.65 52.08 53.35 44.07 36.88 46.55 48.00 47.40 46.83 46.32 44.04 43.59 43.80 41.63 41.86 38.93 38.29 36.68 39.77 39.24 39.16 40.21 40.28 40.01 39.17 39.21 39.86 41.40 44.11 42.22 41.40 39.55 39.33 39.33
57.89 57.66 57.60 57.45 57.41 56.62 55.11 53.86 52.85 52.25 51.62 51.76 53.41 49.91 42.24 39.24 46.90 44.67 47.69 44.67 45.05 45.11 43.03 44.92 43.94 40.99 39.84 37.71 41.22 40.66 36.80 37.93 37.80 38.37 38.65 40.36 35.02 35.94 41.71 41.87 38.40 38.20 38.62 38.61 38.24
56.01 57.44 56.94 56.80 56.80 56.18 55.03 53.62 51.58 51.36 50.77 52.91 53.55 46.49 37.60 47.85 46.76 45.72 44.95 45.84 47.04 46.23 45.39 45.66 44.96 41.40 39.23 39.92 39.92 36.69 34.98 31.33 37.46 37.29 38.14 36.91 30.95 37.98 40.83 38.68 36.27 36.82 36.92 37.42 37.32
53.50 54.56 56.22 56.04 55.95 55.22 54.29 50.81 51.15 51.94 52.34 51.69 46.43 42.16 39.54 51.78 45.38 46.65 46.09 44.86 45.72 45.96 45.27 48.34 43.92 38.53 38.90 33.92 31.63 32.46 28.62 31.00 34.70 37.31 35.64 34.83 31.43 36.89 38.15 37.70 35.31 35.38 35.14 35.79 35.86
53.31 53.66 54.31 55.65 55.48 54.26 51.34 49.32 50.52 49.27 50.61 51.50 49.25 40.61 45.62 44.95 45.13 45.26 44.45 45.63 43.51 42.90 41.88 40.88 37.75 34.26 33.22 31.07 27.24 29.67 30.63 28.26 30.38 34.64 36.17 32.51 30.57 33.48 35.41 35.38 33.99 33.97 34.40 34.04 34.19
52.98 53.21 53.93 54.73 54.42 50.89 50.20 48.93 46.74 45.83 44.48 43.18 43.12 41.44 42.30 46.37 45.97 42.61 45.58 43.91 41.97 39.32 34.00 37.42 32.82 30.25 33.46 34.85 35.89 34.49 31.50 30.25 30.97 36.24 34.36 32.70 30.08 31.20 33.84 34.14 32.23 32.68 32.93 32.78 33.34
52.46 52.48 53.03 54.15 52.16 51.23 48.98 47.30 43.45 44.94 40.82 46.70 44.66 44.57 47.21 47.18 41.70 42.47 45.16 40.29 37.94 33.65 35.49 32.89 30.45 36.83 38.49 37.87 36.22 34.32 31.81 30.96 34.12 37.71 34.84 31.11 29.06 32.02 33.77 33.14 32.86 32.15 31.86 32.09 32.44
51.86 52.22 53.87 51.80 50.29 47.72 45.62 46.99 46.90 43.74 37.21 41.62 45.99 44.74 47.41 48.48 43.26 41.70 42.90 40.00 36.88 33.97 33.89 30.21 34.52 39.66 37.75 35.95 34.94 33.19 31.34 31.47 32.33 33.37 33.77 31.88 27.43 30.68 34.22 34.76 34.80 33.68 33.36 32.91 31.97
51.63 52.84 51.84 50.33 46.03 43.23 43.08 46.32 45.56 44.52 28.87 36.07 39.99 43.80 46.23 46.52 41.39 46.72 44.23 41.35 37.71 34.48 35.02 32.97 38.29 37.11 35.62 35.33 35.92 30.33 35.96 35.65 34.14 30.27 25.39 32.20 21.16 29.12 32.11 32.09 32.55 32.17 31.46 31.45 31.75
51.78 52.40 50.70 50.59 41.72 41.18 44.79 44.84 45.84 43.36 14.71 36.73 41.28 49.21 46.14 42.54 41.02 42.95 44.44 40.58 37.16 36.34 36.86 33.99 36.39 35.64 34.61 35.95 37.38 33.43 37.89 35.31 33.90 28.94 26.76 28.16 24.33 26.18 31.69 30.15 30.23 30.83 31.35 31.32 31.32
51.91 51.71 50.60 46.49 44.04 44.72 43.93 45.92 43.77 27.12 18.56 34.44 41.20 38.89 39.16 40.97 39.31 39.39 40.01 41.38 40.61 36.37 36.32 35.18 38.68 37.25 37.47 39.17 38.24 38.72 35.74 34.35 32.63 29.41 20.28 28.88 27.08 23.00 26.27 29.02 30.34 31.33 30.88 33.43 33.40
51.25 51.73 49.79 48.89 42.95 45.16 45.94 41.09 27.83 18.77 34.93 31.76 34.55 37.28 35.66 35.19 37.71 36.48 35.56 34.12 31.87 27.63 29.01 33.72 35.10 36.77 39.02 34.72 37.53 35.58 30.97 22.56 22.29 21.22 21.86 31.46 27.46 25.06 29.60 31.07 30.98 30.47 30.82 31.55 33.46
49.59 50.37 50.21 48.81 48.80 45.77 43.37 32.27 16.36 27.79 29.79 36.82 35.75 35.58 31.57 34.13 34.18 35.31 32.90 30.48 34.03 32.39 28.76 26.50 24.45 34.55 37.68 35.82 33.63 32.38 31.59 24.56 20.79 20.98 23.14 31.02 23.63 25.20 32.79 33.48 33.39 33.16 31.79 31.34 30.62
48.92 46.55 46.91 48.11 48.97 45.17 38.46 23.86 22.13 27.41 32.44 31.60 32.76 29.91 30.16 33.08 32.04 32.33 30.62 31.23 34.18 35.23 28.50 27.61 28.35 36.67 37.62 39.14 38.55 33.13 28.94 35.20 28.85 27.90 23.16 24.19 27.10 31.77 32.33 31.41 32.65 31.28 29.60 27.75 29.84
42.28 43.59 43.54 49.05 48.53 43.55 34.81 28.27 28.70 34.45 35.29 35.15 28.10 30.91 26.50 29.29 29.47 27.38 29.64 34.21 34.12 37.20 37.28 35.01 27.32 36.20 37.65 38.70 36.80 36.85 38.31 29.58 28.98 23.05 21.21 23.08 23.58 22.80 28.40 28.43 30.61 25.05 25.58 26.76 28.57
43.26 36.91 42.65 47.36 46.89 38.81 28.89 28.49 32.22 36.66 36.58 32.47 32.01 31.13 31.96 29.34 30.36 27.35 30.92 34.71 36.68 35.90 37.45 36.48 33.50 32.07 35.65 33.23 31.66 32.89 31.62 32.58 32.43 27.43 22.12 19.17 19.79 26.43 28.73 28.99 28.23 26.79 23.89 25.42 24.52
40.78 31.50 43.28 45.88 34.85 35.02 30.60 32.28 36.92 34.19 37.06 35.34 36.17 34.53 33.80 33.46 31.26 30.75 30.41 34.38 38.58 37.58 34.55 35.44 32.71 27.87 31.97 37.18 38.23 36.90 33.94 33.36 26.74 25.91 26.48 20.89 17.15 31.95 29.69 29.50 29.44 28.02 26.15 22.73 25.33
37.04 37.10 45.28 44.07 27.48 29.03 32.56 32.81 34.29 33.47 34.41 33.81 32.91 35.41 34.99 33.30 30.21 33.09 33.39 38.59 37.78 36.46 35.05 36.53 31.24 24.11 28.78 33.10 35.89 33.63 34.90 35.07 32.50 29.38 25.74 18.68 17.45 31.17 30.86 29.46 30.91 24.73 25.66 26.43 24.66
38.35 31.73 37.95 39.78 36.05 30.61 30.01 30.70 30.60 36.10 34.68 36.30 34.61 36.18 34.21 33.79 36.06 31.79 33.62 38.47 39.44 38.61 42.25 39.91 33.50 29.89 25.16 28.59 33.05 30.88 33.14 34.51 32.45 25.71 23.90 20.94 18.31 29.18 29.77 26.07 27.35 27.57 26.92 23.32 21.39
37.16 33.87 36.18 31.25 32.59 33.91 33.02 32.10 30.64 30.60 35.29 36.41 33.82 33.91 32.28 29.62 32.16 31.59 34.65 34.57 37.30 41.86 39.57 36.31 29.46 32.57 33.82 34.76 35.04 33.50 33.29 32.04 29.83 29.59 26.06 23.98 24.94 27.43 29.37 26.11 23.35 23.43 26.04 24.90 24.31
32.45 32.39 35.47 34.56 36.28 34.18 34.12 31.24 30.70 32.04 33.16 31.54 32.01 34.34 34.78 32.68 33.23 29.84 32.04 31.59 32.20 35.87 35.38 37.57 29.83 32.82 30.01 34.62 34.51 31.85 32.86 32.04 31.25 30.56 29.12 26.83 26.93 31.08 32.04 29.92 28.07 27.78 25.17 24.30 24.62
40.75 41.51 37.22 33.32 33.42 31.89 32.77 32.97 32.41 35.19 35.76 36.28 34.52 33.49 32.99 35.56 38.35 39.44 37.57 36.86 36.92 34.44 33.27 33.56 31.57 29.54 25.98 31.96 30.65 25.81 28.92 31.04 30.46 30.91 29.93 26.24 28.89 29.61 27.80 27.95 26.08 25.61 25.64 25.14 24.68
MSLP
1020.76 1020.77 1020.83 1020.73 1020.87 1020.72 1020.55 1020.62 1020.43 1019.98 1019.60 1019.58 1019.13 1018.24 1017.87 1017.43 1016.50 1015.69 1015.62 1015.45 1014.99 1014.79 1014.59 1014.39 1013.81 1013.85 1013.72 1014.10 1014.24 1014.60 1015.72 1016.18 1015.22 1014.39 1013.75 1013.41 1013.12 1012.85 1012.90 1013.00 1013.33 1013.87 1015.29 1017.09 1016.66
1020.37 1020.53 1020.74 1020.59 1020.87 1020.60 1020.45 1020.68 1020.62 1019.98 1019.57 1019.68 1018.76 1018.22 1017.91 1017.46 1017.07 1015.91 1015.22 1015.09 1015.01 1014.91 1014.64 1014.84 1014.68 1014.46 1014.50 1014.44 1014.58 1014.96 1015.74 1015.46 1014.45 1013.98 1013.64 1013.46 1013.41 1013.42 1013.47 1014.22 1014.52 1015.97 1017.20 1017.50 1017.44
1020.16 1020.28 1020.27 1020.60 1020.53 1020.66 1020.39 1020.80 1020.69 1020.08 1020.06 1019.45 1018.53 1018.04 1017.75 1017.47 1016.84 1015.55 1014.93 1014.98 1014.99 1014.96 1014.83 1014.95 1015.01 1014.91 1015.02 1014.90 1014.81 1014.96 1015.25 1014.76 1014.06 1013.91 1013.60 1013.67 1013.72 1013.92 1014.29 1015.44 1016.80 1017.76 1018.95 1019.01 1018.72
1019.89 1020.09 1020.14 1020.52 1020.35 1020.56 1020.57 1020.55 1020.64 1020.61 1020.13 1019.31 1018.75 1018.12 1017.55 1017.41 1016.64 1015.17 1014.84 1014.90 1014.93 1014.90 1014.82 1014.89 1014.90 1015.05 1015.36 1015.41 1015.27 1015.16 1014.60 1014.49 1014.23 1013.92 1013.83 1014.05 1014.17 1014.76 1016.25 1018.70 1018.55 1018.75 1019.47 1019.74 1019.29
1019.68 1019.87 1020.10 1020.27 1020.33 1020.54 1020.76 1020.76 1020.66 1020.31 1020.24 1019.58 1018.91 1018.28 1017.72 1017.37 1015.96 1014.89 1015.02 1015.01 1014.76 1014.80 1014.84 1014.92 1015.21 1015.59 1015.87 1015.98 1015.56 1015.48 1014.92 1014.55 1014.33 1013.95 1013.75 1014.15 1015.13 1016.46 1018.49 1019.39 1019.18 1019.31 1019.57 1020.08 1020.67
1019.66 1020.03 1019.88 1020.05 1020.28 1020.56 1020.70 1020.77 1020.76 1020.52 1020.03 1019.88 1019.22 1018.57 1018.58 1017.36 1015.08 1015.02 1015.05 1015.05 1014.91 1015.05 1015.10 1014.94 1015.25 1015.39 1015.92 1016.23 1016.21 1015.72 1015.30 1014.80 1014.16 1014.04 1013.82 1014.39 1015.74 1016.17 1019.49 1020.10 1019.71 1019.91 1020.63 1021.36 1021.74
1019.46 1019.67 1019.83 1019.97 1020.09 1020.32 1020.76 1020.69 1020.76 1020.51 1020.07 1020.04 1019.56 1019.14 1018.92 1016.63 1015.26 1015.00 1015.24 1015.19 1014.82 1015.03 1015.32 1015.24 1015.25 1015.48 1016.01 1016.28 1016.15 1015.86 1015.67 1014.85 1014.04 1013.86 1013.73 1014.35 1017.67 1019.62 1020.53 1021.04 1020.62 1021.05 1021.65 1022.17 1022.50
1019.37 1019.50 1019.67 1019.81 1019.96 1020.19 1020.48 1020.78 1020.62 1020.46 1020.18 1020.09 1019.85 1019.41 1017.90 1015.44 1015.52 1015.26 1015.07 1015.12 1014.84 1014.90 1015.12 1015.35 1015.30 1015.83 1016.11 1016.43 1016.34 1016.51 1016.10 1015.60 1014.48 1014.20 1014.23 1014.98 1019.26 1020.88 1021.47 1021.78 1021.92 1022.33 1022.66 1022.85 1023.06
1019.62 1019.32 1019.65 1019.55 1019.72 1020.19 1020.54 1020.74 1020.71 1020.40 1020.20 1020.00 1019.99 1019.54 1017.22 1015.08 1015.36 1014.97 1014.81 1015.00 1015.12 1015.10 1015.04 1015.25 1015.52 1016.31 1016.68 1017.10 1017.30 1017.05 1016.74 1016.01 1014.88 1014.48 1014.92 1016.32 1020.18 1021.84 1022.32 1022.48 1022.89 1023.46 1023.65 1023.77 1023.85
1019.42 1019.69 1019.35 1019.64 1019.76 1020.16 1020.54 1020.71 1020.35 1020.31 1019.84 1019.78 1019.57 1019.64 1016.60 1015.34 1014.72 1014.72 1015.04 1014.99 1015.27 1015.31 1015.58 1015.80 1016.58 1017.07 1017.63 1017.72 1017.56 1017.05 1016.76 1016.25 1015.71 1015.48 1016.06 1018.33 1021.05 1022.43 1022.94 1023.20 1023.77 1024.23 1024.48 1024.60 1024.51
1019.38 1019.52 1019.52 1019.43 1019.90 1020.39 1020.72 1020.84 1020.94 1020.53 1019.90 1019.04 1018.70 1017.75 1016.38 1015.71 1014.74 1014.63 1014.80 1015.42 1015.71 1016.00 1016.35 1016.67 1017.50 1017.45 1017.26 1017.01 1016.79 1016.85 1016.63 1016.37 1015.91 1015.98 1017.18 1019.62 1021.68 1023.00 1023.58 1023.98 1024.58 1024.94 1024.89 1024.76 1024.78
1019.39 1019.52 1019.56 1019.57 1020.08 1020.50 1020.62 1020.81 1020.36 1020.44 1019.47 1017.97 1017.72 1017.37 1016.38 1016.31 1015.62 1014.81 1014.67 1015.45 1016.20 1016.50 1017.01 1017.58 1017.00 1016.34 1017.02 1017.02 1016.79 1016.67 1016.52 1016.44 1016.25 1016.28 1017.72 1020.57 1022.29 1023.27 1023.92 1024.53 1024.95 1025.23 1025.42 1025.32 1024.64
1019.34 1019.39 1019.68 1020.12 1020.56 1020.88 1020.73 1020.44 1020.00 1020.40 1020.11 1017.33 1016.30 1015.70 1015.45 1015.53 1015.19 1014.78 1014.93 1015.22 1015.86 1016.65 1016.82 1017.15 1016.17 1015.56 1016.43 1016.74 1016.74 1016.44 1016.25 1016.39 1016.51 1016.94 1018.08 1020.14 1022.25 1023.04 1023.81 1024.52 1025.04 1025.57 1025.92 1025.80 1025.50
1019.32 1019.48 1019.68 1020.13 1020.92 1021.08 1020.90 1020.25 1020.35 1020.72 1020.24 1016.85 1015.51 1013.63 1013.62 1013.91 1013.74 1013.83 1014.03 1014.65 1015.51 1015.77 1016.58 1016.57 1015.90 1015.72 1015.79 1015.74 1015.91 1016.10 1015.76 1016.08 1016.63 1017.63 1018.84 1019.46 1021.28 1022.47 1023.32 1024.46 1025.32 1025.77 1025.84 1025.92 1026.05
1019.08 1019.68 1019.99 1019.87 1020.80 1021.12 1020.67 1020.36 1020.46 1020.80 1019.68 1015.61 1014.29 1013.02 1013.01 1013.84 1013.35 1013.56 1013.36 1014.24 1014.58 1015.17 1015.96 1015.26 1015.15 1015.09 1015.09 1014.78 1015.09 1015.44 1015.72 1016.27 1016.92 1018.10 1018.95 1019.66 1021.27 1022.12 1023.39 1024.30 1025.16 1025.80 1026.13 1026.30 1026.54
1019.19 1019.62 1020.18 1020.68 1020.61 1020.49 1020.34 1020.38 1020.91 1021.41 1018.32 1015.02 1013.62 1013.47 1013.87 1013.84 1013.43 1013.30 1013.82 1014.19 1014.57 1015.16 1015.28 1015.29 1014.87 1014.85 1014.50 1014.23 1014.51 1014.91 1016.02 1016.98 1017.76 1018.83 1019.33 1019.49 1021.15 1022.30 1023.64 1024.16 1024.91 1025.61 1026.12 1026.27 1026.44
1018.96 1019.48 1020.32 1020.57 1020.56 1020.27 1020.53 1020.95 1021.93 1020.63 1017.11 1015.29 1013.97 1013.94 1014.08 1014.39 1014.26 1013.92 1014.21 1014.60 1014.71 1015.19 1015.23 1015.30 1014.64 1014.36 1014.42 1014.63 1014.81 1015.26 1016.43 1017.84 1018.95 1019.56 1019.08 1019.08 1020.82 1022.06 1023.67 1024.43 1025.06 1025.52 1026.03 1026.46 1026.49
1019.09 1019.79 1019.97 1020.46 1020.36 1020.51 1021.04 1021.89 1021.57 1018.24 1017.02 1015.34 1014.58 1014.52 1014.75 1014.56 1014.75 1014.60 1014.62 1014.85 1015.03 1014.72 1014.92 1014.97 1014.31 1013.54 1013.34 1013.68 1014.48 1015.33 1015.96 1016.84 1017.72 1018.83 1019.15 1019.88 1021.08 1022.32 1023.68 1024.49 1025.03 1025.53 1026.15 1026.67 1026.98
1018.99 1019.90 1020.27 1020.52 1020.69 1020.95 1021.40 1021.26 1018.56 1017.35 1016.35 1015.56 1015.34 1015.22 1015.02 1014.85 1015.02 1015.19 1015.05 1014.70 1014.30 1014.36 1014.71 1014.47 1013.82 1012.65 1012.66 1012.72 1013.41 1014.83 1015.50 1016.08 1017.40 1018.77 1019.80 1020.42 1021.99 1023.05 1023.90 1024.50 1025.08 1025.84 1026.55 1027.04 1027.23
1019.30 1019.78 1019.93 1020.04 1020.71 1021.37 1021.57 1018.98 1017.49 1016.29 1015.70 1015.56 1015.89 1015.68 1015.26 1015.11 1015.28 1015.33 1014.88 1013.89 1013.69 1013.73 1013.62 1013.75 1013.81 1012.90 1012.61 1012.59 1012.92 1013.30 1014.62 1015.99 1017.26 1018.83 1019.99 1020.90 1021.93 1022.63 1023.99 1024.56 1025.27 1026.21 1026.97 1027.56 1027.92
1019.04 1019.60 1019.14 1019.84 1020.78 1021.34 1019.48 1017.77 1016.41 1016.12 1015.88 1016.10 1015.56 1015.58 1015.59 1015.38 1015.23 1015.10 1014.51 1013.63 1012.95 1012.81 1013.32 1013.54 1014.32 1013.76 1013.06 1012.66 1012.66 1013.52 1014.19 1015.43 1016.51 1018.23 1019.63 1021.36 1022.15 1022.27 1023.51 1024.71 1025.56 1026.63 1027.41 1027.86 1028.29
1018.23 1018.86 1018.52 1019.39 1020.29 1019.43 1017.41 1016.59 1016.30 1015.73 1015.86 1015.75 1015.56 1015.23 1015.52 1015.36 1015.29 1014.98 1014.13 1013.04 1012.27 1012.40 1013.29 1013.72 1013.92 1013.78 1013.39 1012.70 1012.64 1012.89 1013.72 1014.90 1016.22 1018.45 1019.81 1021.36 1022.33 1022.81 1023.78 1024.88 1025.78 1026.82 1027.50 1028.08 1028.53
1017.37 1017.93 1018.33 1018.72 1018.15 1017.56 1016.88 1016.71 1016.74 1015.42 1015.60 1015.55 1015.03 1014.73 1014.94 1015.25 1015.53 1014.48 1013.60 1012.74 1012.47 1012.45 1012.63 1013.50 1014.13 1014.27 1013.71 1013.42 1013.12 1013.29 1013.93 1014.79 1016.20 1017.80 1019.57 1021.65 1022.60 1023.42 1024.26 1025.13 1025.86 1026.90 1027.60 1028.38 1028.80
1016.73 1017.33 1017.56 1017.71 1016.50 1016.86 1016.99 1015.73 1015.78 1015.54 1015.64 1015.10 1014.54 1014.88 1014.81 1014.67 1014.65 1014.22 1013.32 1012.92 1012.72 1012.94 1012.63 1013.02 1013.84 1014.15 1014.07 1013.64 1013.55 1014.00 1014.31 1015.05 1016.20 1017.96 1019.35 1020.74 1022.18 1023.40 1024.27 1025.01 1025.98 1026.98 1027.69 1028.68 1028.84
1015.92 1015.73 1015.38 1015.82 1015.77 1015.96 1016.01 1014.83 1014.73 1014.82 1015.09 1014.80 1014.24 1014.07 1014.37 1014.71 1014.33 1013.87 1013.61 1013.43 1013.32 1013.46 1013.25 1013.45 1014.07 1014.62 1014.60 1013.95 1014.21 1014.35 1014.45 1015.23 1015.97 1017.14 1018.80 1020.02 1021.23 1022.23 1023.19 1024.65 1025.94 1026.80 1027.70 1028.27 1028.63
1015.36 1015.74 1015.72 1015.13 1015.14 1015.27 1014.82 1013.26 1013.51 1013.21 1013.93 1013.58 1013.43 1013.35 1013.71 1013.29 1013.19 1013.34 1013.65 1013.62 1013.55 1013.93 1013.80 1013.90 1014.87 1014.71 1014.74 1014.51 1014.73 1014.64 1014.76 1015.30 1016.16 1017.44 1018.73 1019.85 1021.20 1021.75 1023.00 1024.21 1025.66 1026.50 1027.50 1028.31 1028.66
1014.62 1014.75 1015.04 1014.50 1014.44 1014.24 1013.15 1012.59 1011.85 1013.02 1012.89 1012.52 1012.88 1013.31 1012.79 1012.10 1012.82 1012.74 1012.74 1013.05 1013.12 1013.54 1014.04 1014.45 1015.14 1015.92 1015.37 1015.19 1015.27 1015.54 1015.27 1015.63 1016.59 1017.42 1018.58 1020.09 1020.56 1021.93 1023.21 1024.41 1025.49 1026.60 1027.60 1028.28 1028.59
Wind_Speed
6 5 4 4 5 6 8 9 8 11 13 16 18 18 18 19 17 2 1 1 3 10 9 7 5 8 4 3 3 3 6 1 3 5 3 2 3 6 1 4 4 4 11 10 15
7 7 6 4 5 5 7 9 10 11 13 14 17 19 18 18 3 3 3 1 5 8 7 9 8 10 4 2 2 5 5 9 4 3 3 3 2 2 3 5 3 13 16 17 17
9 9 6 7 4 5 5 7 10 12 12 15 17 19 19 9 3 2 3 2 3 4 2 1 3 1 4 5 3 2 5 4 3 2 3 2 2 1 2 4 9 10 11 13 17
10 9 8 8 5 5 5 6 7 11 13 14 17 19 19 2 1 2 4 2 4 3 3 5 5 5 3 4 5 3 4 3 1 3 2 2 3 3 12 6 11 14 12 14 20
10 9 9 8 6 5 4 4 6 7 12 14 16 18 7 5 6 2 1 3 3 2 4 3 4 3 3 4 6 2 4 6 4 4 2 3 4 13 12 9 13 16 19 19 16
9 10 9 9 7 6 3 4 6 9 10 13 14 13 4 3 2 1 2 2 2 2 3 4 2 2 0 3 1 5 5 8 6 7 3 2 4 9 5 7 16 17 17 16 16
9 10 10 9 8 6 5 4 6 8 10 11 10 3 1 12 2 0 2 2 2 1 1 2 2 4 1 4 4 6 7 8 4 2 6 8 11 8 6 9 16 15 13 13 15
4 7 9 9 8 7 4 4 5 9 10 8 7 1 7 3 3 3 4 4 3 1 1 3 4 3 3 2 6 5 3 5 5 1 4 3 4 6 7 8 13 13 12 12 14
4 4 7 8 7 7 4 2 7 12 12 8 2 2 9 7 1 6 5 3 2 3 2 1 4 3 3 4 4 2 3 3 6 5 2 6 5 5 8 9 12 10 10 11 10
3 6 5 5 6 7 7 1 6 8 4 2 3 3 4 3 3 1 3 3 1 2 3 3 5 3 3 4 5 4 3 3 3 5 9 10 7 4 6 9 9 9 8 9 10
2 5 5 3 9 13 5 3 3 2 2 8 2 4 4 8 3 1 5 4 2 4 3 1 3 7 11 8 3 2 2 3 3 5 6 6 6 4 4 7 7 7 8 11 11
1 5 4 5 13 9 2 2 3 1 8 11 14 9 10 2 4 3 6 7 3 6 2 2 8 11 6 5 4 5 6 5 5 3 7 4 4 3 3 4 6 8 9 11 14
4 4 7 16 12 4 1 2 3 3 5 7 8 8 8 11 10 7 9 6 6 6 8 7 7 4 8 6 6 5 6 5 6 1 6 9 1 4 3 6 6 7 6 9 12
7 7 18 16 4 2 2 2 4 2 3 7 6 9 7 9 9 12 14 8 5 11 6 8 11 10 6 6 8 6 7 6 6 4 5 5 6 6 6 4 3 5 7 9 12
10 18 17 5 7 3 3 5 4 4 3 3 5 1 5 9 1 6 8 3 11 8 7 9 3 7 12 9 8 8 6 7 5 3 1 1 3 2 8 5 2 5 8 7 7
11 17 15 3 1 2 5 4 4 7 11 6 4 4 5 5 2 3 5 4 5 2 5 5 2 3 5 5 8 8 5 5 5 4 3 9 7 5 4 2 1 2 4 10 11
5 16 12 4 3 4 4 4 4 5 4 4 4 5 4 5 5 2 11 11 11 6 12 4 12 4 4 2 1 5 7 1 1 0 7 3 6 1 5 2 3 2 4 5 8
3 8 6 4 0 5 2 6 5 7 8 3 4 4 6 4 4 5 4 8 9 3 4 7 6 12 8 10 6 7 7 6 6 5 3 2 5 1 4 6 6 5 6 6 6
6 1 3 4 4 1 4 5 12 8 5 2 5 2 4 5 6 5 6 8 10 11 8 6 7 2 5 6 13 5 6 6 4 3 2 1 2 4 5 4 3 6 6 6 6
4 3 5 8 6 3 5 18 9 7 2 4 7 7 7 6 7 7 6 6 10 16 4 2 5 2 1 5 1 7 7 4 1 4 5 2 3 4 10 5 1 4 5 4 5
4 3 6 10 6 6 17 14 13 5 5 5 5 3 4 4 7 6 7 6 9 11 14 12 3 5 2 5 8 4 3 3 5 4 4 1 6 4 7 5 3 2 3 3 5
5 5 7 13 11 10 21 18 10 6 12 8 5 6 5 2 4 7 11 9 3 9 12 7 4 12 10 4 3 7 6 5 5 4 2 3 7 2 7 6 6 5 3 2 2
6 3 9 13 14 16 17 26 24 9 13 11 14 9 7 7 5 7 11 4 6 8 9 8 3 1 6 4 1 3 4 4 5 3 5 6 6 4 5 6 5 4 2 2 3
4 5 4 12 4 16 18 25 28 11 18 17 5 10 4 9 11 6 4 2 3 2 7 6 5 6 9 2 4 4 4 5 6 4 5 6 5 9 9 6 4 5 3 2 2
2 4 5 8 12 15 16 8 27 24 22 10 16 21 15 14 5 7 5 1 4 4 2 4 6 8 11 2 2 6 12 11 6 5 7 6 7 10 10 9 7 6 4 3 3
5 4 1 1 1 19 23 23 24 24 21 26 20 14 13 15 13 7 7 6 6 2 2 4 1 2 5 8 7 5 10 8 4 5 5 5 2 6 6 9 6 7 6 3 1
2 2 2 4 7 6 13 19 24 15 14 21 27 17 17 20 11 10 6 4 6 6 3 4 4 3 5 9 2 3 7 8 4 3 8 7 6 7 8 9 8 8 5 4 2
Wind_Direction
254 265 281 307 324 336 346 350 356 8 3 347 339 341 341 336 324 354 302 230 350 338 328 293 8 356 50 20 10 113 66 162 227 140 146 307 61 329 345 12 65 47 42 49 31
228 240 262 276 294 324 346 341 343 3 0 340 342 337 337 334 338 338 268 323 9 351 31 20 350 348 13 340 5 88 111 212 213 169 147 152 145 251 19 12 358 81 28 32 34
229 229 226 244 261 300 336 331 340 357 346 343 344 338 336 329 1 315 207 240 353 22 74 199 275 259 359 355 14 114 178 197 296 310 110 165 118 276 328 72 23 91 72 39 41
222 223 221 236 235 269 307 344 341 341 342 349 344 338 331 299 336 273 206 260 349 323 13 351 6 24 16 350 337 339 238 87 226 337 76 160 144 18 44 99 90 83 81 61 48
231 226 228 236 233 254 286 321 325 342 335 345 345 346 3 -0 257 259 212 338 353 359 36 41 53 20 2 333 339 233 331 323 287 250 228 167 75 103 73 91 83 75 58 49 47
239 242 230 230 228 224 262 307 321 328 341 340 346 345 15 301 332 266 192 340 4 24 20 56 102 164 231 304 11 307 283 278 270 198 230 212 102 83 62 67 66 60 57 50 41
252 242 240 229 221 214 224 278 310 321 333 335 350 21 16 242 1 273 271 262 179 143 26 36 113 75 89 321 347 302 320 322 302 250 191 151 26 46 35 48 59 50 52 48 37
352 262 241 234 230 212 212 269 309 310 326 329 341 25 250 248 328 283 167 304 285 171 148 139 104 98 125 313 2 356 16 343 299 168 340 80 142 28 22 54 50 42 36 36 34
337 326 282 239 221 206 187 217 296 305 298 290 339 26 263 313 240 238 171 192 305 301 326 61 67 98 37 80 10 359 250 234 320 9 106 63 128 35 16 54 51 34 30 26 19
332 336 341 285 219 160 137 258 300 312 264 172 265 329 265 266 245 200 210 171 165 96 16 73 51 72 38 98 216 193 202 265 273 311 43 70 109 56 35 57 48 29 23 21 19
358 357 3 317 145 131 123 323 315 266 231 205 227 272 302 316 253 149 148 75 50 69 176 160 95 209 208 194 179 300 237 246 263 268 86 99 118 120 86 63 43 25 19 17 10
74 12 349 119 129 131 100 223 259 45 296 231 241 253 265 260 329 293 126 157 161 210 145 358 231 227 201 214 226 225 191 234 277 267 100 150 107 105 81 72 60 26 16 7 360
151 67 112 119 122 95 181 250 98 43 270 269 204 194 212 184 216 228 160 159 182 186 194 186 232 64 171 218 222 219 179 200 211 219 68 119 193 192 115 109 62 45 21 16 13
156 97 128 136 97 149 244 257 97 87 354 265 236 256 191 168 250 188 190 153 205 204 181 235 241 255 225 213 173 201 208 189 167 129 234 179 276 197 175 146 60 24 20 13 11
151 135 150 142 137 179 257 150 123 57 343 230 200 191 183 170 341 211 182 177 211 183 141 236 223 211 228 215 174 212 155 164 153 161 24 245 328 26 157 197 38 21 14 7 14
160 153 146 94 95 256 130 117 57 47 247 308 154 158 120 220 251 85 144 100 157 230 252 240 307 295 227 191 170 149 118 54 52 103 290 191 175 205 204 184 97 41 19 7 3
178 162 159 155 191 137 125 60 62 180 308 257 190 159 191 198 219 154 178 189 188 175 239 283 252 213 195 140 81 104 104 265 11 243 232 237 185 90 164 151 141 78 35 3 14
219 170 181 161 265 136 73 55 175 211 222 320 82 63 190 162 277 225 188 205 224 179 153 188 293 185 187 172 183 189 164 168 207 195 231 32 231 226 148 165 161 97 59 25 12
202 144 155 193 166 128 144 210 208 192 204 226 348 301 250 208 183 186 218 221 210 187 185 189 260 252 191 164 153 198 199 173 92 24 64 157 147 201 166 172 98 67 38 8 5
123 162 168 170 133 96 202 232 217 188 99 68 191 212 224 221 179 160 200 232 216 208 167 238 295 279 215 109 80 154 165 122 53 204 224 239 251 228 190 208 82 31 20 348 358
142 200 167 158 113 185 212 224 218 183 182 194 213 251 251 231 207 202 219 260 210 195 193 218 114 300 125 210 168 141 186 81 120 145 180 179 258 205 162 165 166 152 250 306 335
149 205 178 151 184 207 224 212 230 238 227 247 235 235 248 285 275 249 222 218 207 166 198 199 191 232 236 256 207 196 171 150 148 188 86 132 271 110 144 160 156 158 195 259 286
162 148 167 177 198 214 230 234 241 219 214 223 221 208 227 252 255 219 239 229 186 158 177 171 214 290 339 305 10 194 186 131 102 86 183 143 254 146 139 149 153 166 247 314 306
151 158 178 202 212 206 223 235 233 224 254 238 237 240 229 235 225 255 223 119 46 292 166 121 144 196 222 223 155 174 160 166 162 161 165 220 180 187 199 196 194 164 146 190 267
191 202 192 194 217 231 212 230 226 230 219 216 233 228 226 238 216 219 245 150 49 185 73 116 183 190 224 268 250 247 199 182 167 160 175 214 182 197 185 189 196 177 164 109 13
150 156 207 241 166 217 223 223 228 221 214 224 241 220 228 231 222 184 172 196 193 161 82 130 149 63 313 252 233 203 189 163 124 124 80 119 179 170 138 126 149 146 137 150 5
168 172 190 197 197 208 219 225 226 215 226 226 222 233 238 236 225 238 194 167 165 145 131 88 97 129 238 235 185 300 205 172 138 151 142 180 192 141 142 151 148 146 153 146 94